0 HST 1 20580U 90037B 26228.50178421 .00004453 00000-0 13543-3 0 9997 2 20580 28.4729 28.1469 0002379 91.2719 268.8150 15.31353615797825 0 ISS (ZARYA) 1 25544U 98067A 26228.56710022 .00005115 00000-0 99348-4 0 9992 2 25544 51.6334 1.2594 0007609 53.1141 307.0544 15.49461657581119 0 CXO 1 25867U 99040B 26230.20277318 .00000708 00000-0 00000-0 0 9998 2 25867 57.0216 115.0151 7736045 309.7125 0.6172 0.37805232 17558